Previsão horária em Abakonovo

Hoje, 27 Janeiro, Quarta-feira

Tempo Temperatura Precipitação Vento Pressão Humidade
00:00 -3°C° 0.1 mm 4 m/s 727 mmHg 93%
01:00 -3°C° 0.1 mm 4 m/s 727 mmHg 93%
02:00 -3°C° 0.1 mm 4 m/s 727 mmHg 94%
03:00 -2°C° 0.3 mm 3 m/s 727 mmHg 95%
04:00 -2°C° 0.3 mm 3 m/s 727 mmHg 95%
05:00 -2°C° 0.3 mm 2 m/s 726 mmHg 96%
06:00 -3°C° 0.2 mm 2 m/s 727 mmHg 96%
07:00 -3°C° 0.2 mm 2 m/s 727 mmHg 96%
08:00 -3°C° 0.2 mm 2 m/s 727 mmHg 95%
09:00 -4°C° 0 mm 3 m/s 728 mmHg 93%
10:00 -2°C° 0 mm 3 m/s 729 mmHg 91%
11:00 -2°C° 0 mm 3 m/s 730 mmHg 88%
12:00 -2°C° 0 mm 3 m/s 731 mmHg 87%
13:00 -1°C° 0 mm 3 m/s 731 mmHg 87%
14:00 -1°C° 0 mm 2 m/s 732 mmHg 86%
15:00 -1°C° 0.1 mm 2 m/s 732 mmHg 89%
16:00 -2°C° 0.1 mm 2 m/s 733 mmHg 91%
17:00 -2°C° 0.1 mm 2 m/s 733 mmHg 94%
18:00 -2°C° 0.1 mm 2 m/s 734 mmHg 95%
19:00 -2°C° 0.1 mm 2 m/s 734 mmHg 95%
20:00 -2°C° 0.1 mm 2 m/s 734 mmHg 96%
21:00 -2°C° 0 mm 2 m/s 735 mmHg 95%
22:00 -2°C° 0 mm 2 m/s 735 mmHg 95%
23:00 -2°C° 0 mm 2 m/s 735 mmHg 94%

Amanhã, 28 Janeiro, Quinta-feira

Tempo Temperatura Precipitação Vento Pressão Humidade
00:00 -2°C° 0 mm 2 m/s 735 mmHg 95%
01:00 -2°C° 0 mm 2 m/s 735 mmHg 95%
02:00 -2°C° 0 mm 2 m/s 736 mmHg 95%
03:00 -2°C° 0 mm 2 m/s 736 mmHg 95%
04:00 -2°C° 0 mm 2 m/s 736 mmHg 95%
05:00 -2°C° 0 mm 2 m/s 735 mmHg 95%
06:00 0°C° 0 mm 1 m/s 736 mmHg 95%
07:00 -1°C° 0 mm 1 m/s 736 mmHg 95%
08:00 -1°C° 0 mm 1 m/s 736 mmHg 96%
09:00 -1°C° 0 mm 1 m/s 736 mmHg 94%
10:00 0°C° 0 mm 1 m/s 735 mmHg 92%
11:00 0°C° 0 mm 1 m/s 735 mmHg 90%
12:00 0°C° 0 mm 1 m/s 735 mmHg 90%
13:00 0°C° 0 mm 1 m/s 735 mmHg 89%
14:00 +1°C° 0 mm 1 m/s 734 mmHg 88%
15:00 0°C° 0.1 mm 1 m/s 734 mmHg 91%
16:00 0°C° 0.1 mm 1 m/s 734 mmHg 94%
17:00 -1°C° 0.1 mm 1 m/s 733 mmHg 97%
18:00 -1°C° 0.1 mm 1 m/s 733 mmHg 97%
19:00 -1°C° 0.1 mm 1 m/s 732 mmHg 97%
20:00 -3°C° 0.1 mm 2 m/s 732 mmHg 97%
21:00 -3°C° 0.6 mm 2 m/s 731 mmHg 97%
22:00 -1°C° 0.6 mm 1 m/s 731 mmHg 97%
23:00 -1°C° 0.6 mm 1 m/s 731 mmHg 97%

Depois de amanhã, 29 Janeiro, Sexta-feira

Tempo Temperatura Precipitação Vento Pressão Humidade
00:00 0°C° 0.1 mm 1 m/s 730 mmHg 97%
01:00 0°C° 0.1 mm 1 m/s 730 mmHg 97%
02:00 +1°C° 0.1 mm 1 m/s 729 mmHg 98%
03:00 -1°C° 0.1 mm 2 m/s 729 mmHg 98%
04:00 0°C° 0.1 mm 3 m/s 728 mmHg 97%
05:00 0°C° 0.1 mm 3 m/s 728 mmHg 97%
06:00 0°C° 0.1 mm 3 m/s 728 mmHg 97%
07:00 0°C° 0.1 mm 3 m/s 728 mmHg 97%
08:00 -1°C° 0.1 mm 4 m/s 727 mmHg 96%
09:00 -1°C° 0.1 mm 4 m/s 727 mmHg 94%
10:00 -1°C° 0.1 mm 4 m/s 727 mmHg 91%
11:00 -2°C° 0.1 mm 5 m/s 727 mmHg 88%
12:00 -2°C° 0 mm 4 m/s 727 mmHg 86%
13:00 -2°C° 0 mm 4 m/s 726 mmHg 85%
14:00 -2°C° 0 mm 4 m/s 726 mmHg 83%
15:00 -2°C° 0 mm 3 m/s 726 mmHg 86%
16:00 -2°C° 0 mm 3 m/s 725 mmHg 88%
17:00 -3°C° 0 mm 2 m/s 725 mmHg 91%
18:00 -3°C° 0.1 mm 2 m/s 725 mmHg 93%
19:00 -3°C° 0.1 mm 2 m/s 725 mmHg 94%
20:00 -4°C° 0.1 mm 2 m/s 724 mmHg 96%
21:00 -2°C° 0 mm 1 m/s 724 mmHg 96%
22:00 -2°C° 0 mm 1 m/s 724 mmHg 97%
23:00 -3°C° 0 mm 1 m/s 724 mmHg 97%

30 Janeiro, Sábado

Tempo Temperatura Precipitação Vento Pressão Humidade
00:00 -3°C° 0.1 mm 1 m/s 723 mmHg 97%
01:00 -3°C° 0.1 mm 1 m/s 723 mmHg 97%
02:00 -3°C° 0.1 mm 1 m/s 723 mmHg 97%
03:00 -3°C° 0.1 mm 1 m/s 723 mmHg 97%
04:00 -3°C° 0.1 mm 1 m/s 723 mmHg 96%
05:00 -3°C° 0.1 mm 1 m/s 723 mmHg 96%
06:00 -5°C° 0.1 mm 2 m/s 723 mmHg 95%
07:00 -5°C° 0.1 mm 2 m/s 723 mmHg 95%
08:00 -6°C° 0.1 mm 2 m/s 723 mmHg 95%
09:00 -5°C° 0.1 mm 2 m/s 723 mmHg 93%
10:00 -6°C° 0.1 mm 3 m/s 723 mmHg 91%
11:00 -6°C° 0.1 mm 3 m/s 724 mmHg 89%
12:00 -6°C° 0.1 mm 3 m/s 724 mmHg 89%
13:00 -5°C° 0.1 mm 4 m/s 724 mmHg 89%
14:00 -5°C° 0.1 mm 4 m/s 724 mmHg 89%
15:00 -7°C° 0.1 mm 4 m/s 724 mmHg 90%
16:00 -7°C° 0.1 mm 4 m/s 724 mmHg 91%
17:00 -7°C° 0.1 mm 4 m/s 725 mmHg 92%
18:00 -7°C° 0.2 mm 4 m/s 725 mmHg 93%
19:00 -7°C° 0.2 mm 4 m/s 725 mmHg 93%
20:00 -7°C° 0.2 mm 4 m/s 725 mmHg 93%
21:00 -7°C° 0.2 mm 4 m/s 726 mmHg 93%
22:00 -7°C° 0.2 mm 4 m/s 726 mmHg 93%
23:00 -7°C° 0.2 mm 4 m/s 726 mmHg 93%

31 Janeiro, Domingo

Tempo Temperatura Precipitação Vento Pressão Humidade
00:00 -7°C° 0.2 mm 4 m/s 726 mmHg 93%
01:00 -7°C° 0.2 mm 4 m/s 727 mmHg 93%
02:00 -7°C° 0.2 mm 4 m/s 727 mmHg 93%
03:00 -8°C° 0.1 mm 4 m/s 727 mmHg 92%
04:00 -8°C° 0.1 mm 4 m/s 727 mmHg 92%
05:00 -8°C° 0.1 mm 4 m/s 727 mmHg 91%
06:00 -8°C° 0 mm 4 m/s 728 mmHg 90%
07:00 -8°C° 0 mm 3 m/s 728 mmHg 90%
08:00 -8°C° 0 mm 3 m/s 728 mmHg 89%
09:00 -8°C° 0 mm 3 m/s 729 mmHg 88%
10:00 -8°C° 0 mm 4 m/s 729 mmHg 87%
11:00 -8°C° 0 mm 4 m/s 730 mmHg 86%
12:00 -8°C° 0 mm 4 m/s 730 mmHg 86%
13:00 -8°C° 0 mm 4 m/s 731 mmHg 85%
14:00 -8°C° 0 mm 4 m/s 731 mmHg 84%
15:00 -9°C° 0 mm 4 m/s 731 mmHg 85%
16:00 -9°C° 0 mm 4 m/s 731 mmHg 85%
17:00 -8°C° 0 mm 3 m/s 732 mmHg 86%
18:00 -8°C° 0 mm 3 m/s 732 mmHg 88%
19:00 -8°C° 0 mm 3 m/s 732 mmHg 90%
20:00 -9°C° 0 mm 3 m/s 732 mmHg 92%
21:00 -8°C° 0 mm 2 m/s 732 mmHg 93%
22:00 -9°C° 0 mm 2 m/s 733 mmHg 94%
23:00 -9°C° 0 mm 2 m/s 733 mmHg 96%

1 Fevereiro, Segunda-feira

Tempo Temperatura Precipitação Vento Pressão Humidade
00:00 -9°C° 0 mm 2 m/s 733 mmHg 96%
01:00 -10°C° 0 mm 2 m/s 732 mmHg 96%
02:00 -9°C° 0 mm 1 m/s 732 mmHg 96%
03:00 -9°C° 0 mm 1 m/s 732 mmHg 95%
04:00 -9°C° 0 mm 1 m/s 732 mmHg 95%
05:00 -9°C° 0 mm 1 m/s 731 mmHg 94%
06:00 -8°C° 0 mm 1 m/s 731 mmHg 94%
07:00 -8°C° 0 mm 1 m/s 731 mmHg 93%
08:00 -8°C° 0 mm 1 m/s 731 mmHg 92%
09:00 -7°C° 0 mm 1 m/s 730 mmHg 89%
10:00 -6°C° 0 mm 1 m/s 730 mmHg 87%
11:00 -6°C° 0 mm 1 m/s 729 mmHg 84%
12:00 -4°C° 0 mm 1 m/s 729 mmHg 83%
13:00 -6°C° 0 mm 2 m/s 728 mmHg 83%
14:00 -6°C° 0 mm 2 m/s 728 mmHg 83%
15:00 -6°C° 0 mm 2 m/s 728 mmHg 85%
16:00 -6°C° 0 mm 2 m/s 728 mmHg 87%
17:00 -7°C° 0 mm 2 m/s 728 mmHg 89%
18:00 -7°C° 0 mm 2 m/s 728 mmHg 90%
19:00 -9°C° 0 mm 3 m/s 727 mmHg 91%
20:00 -9°C° 0 mm 3 m/s 727 mmHg 92%
21:00 -10°C° 0 mm 3 m/s 728 mmHg 93%
22:00 -10°C° 0 mm 3 m/s 728 mmHg 93%
23:00 -10°C° 0 mm 3 m/s 728 mmHg 94%
Mostrar mais